SM6KNE Weather Reports


Display with metric or nautical units.
time (UTC)temp
F
wind
direction
speed
MPH
gust
MPH
rain 1hr
in
rain 24hr
in
rain mn
in
humidity
%
barometer
mb
20260503004523 52 248 1.0 4.0 0.00 0.00 0.00 77 1010.1
20260503003516 52 265 1.0 4.0 0.00 0.00 0.00 76 1010.1
20260503002520 52 257 1.0 3.0 0.00 0.00 0.00 75 1010.1
20260503001518 52 275 1.0 4.0 0.00 0.00 0.00 75 1010.1
20260503000516 52 0.0 0.0 0.00 0.00 0.00 75 1010.1
20260502235518 52 262 1.0 3.0 0.00 0.00 0.00 75 1010.1
20260502234523 52 264 1.0 3.0 0.00 0.00 0.00 74 1010.1
20260502233544 52 0.0 0.0 0.00 0.00 0.00 73 1010.1
20260502232523 52 0.0 0.0 0.00 0.00 0.00 73 1010.1
20260502231524 52 0.0 0.0 0.00 0.00 0.00 73 1010.1
20260502230523 53 0.0 0.0 0.00 0.00 0.00 73 1010.1
20260502225528 52 0.0 0.0 0.00 0.00 0.00 73 1010.1
20260502224523 52 270 1.0 4.0 0.00 0.00 0.00 72 1010.1
20260502223523 52 0.0 0.0 0.00 0.00 0.00 72 1010.1
20260502222523 52 0.0 0.0 0.00 0.00 0.00 72 1011.1
20260502221523 52 0.0 0.0 0.00 0.00 0.00 70 1011.1
20260502220527 52 0.0 0.0 0.00 0.00 0.00 70 1011.1
20260502215543 53 0.0 0.0 0.00 0.00 0.00 69 1011.1
20260502214527 52 0.0 0.0 0.00 0.00 0.00 69 1011.1
20260502213523 53 0.0 0.0 0.00 0.00 0.00 69 1011.1
20260502212520 53 0.0 0.0 0.00 0.00 0.00 68 1011.1
20260502211525 53 293 0.0 1.0 0.00 0.00 0.00 68 1011.1
20260502210549 53 0.0 0.0 0.00 0.00 0.00 68 1011.1
20260502205523 54 0.0 0.0 0.00 0.00 0.00 67 1011.1
20260502204524 54 0.0 0.0 0.00 0.00 0.00 67 1011.1
20260502203543 54 248 1.0 3.0 0.00 0.00 0.00 67 1011.1
20260502202524 54 248 0.0 3.0 0.00 0.00 0.00 66 1011.1
20260502201523 54 257 1.0 5.0 0.00 0.00 0.00 66 1011.1
20260502200523 55 258 8.0 10.0 0.00 0.00 0.00 64 1011.1
20260502195516 55 248 7.0 7.0 0.00 0.00 0.00 64 1011.1
20260502194523 56 268 6.0 7.0 0.00 0.00 0.00 61 1011.1
20260502193523 56 260 7.0 10.0 0.00 0.00 0.00 57 1011.1
20260502192523 56 253 7.0 8.0 0.00 0.00 0.00 57 1011.1
20260502191523 57 260 8.0 10.0 0.00 0.00 0.00 58 1011.1
20260502190523 58 254 7.0 8.0 0.00 0.00 0.00 60 1011.1
20260502185523 59 269 9.0 11.0 0.00 0.00 0.00 61 1011.1
20260502184523 60 275 9.0 11.0 0.00 0.00 0.00 60 1011.1
20260502183523 61 293 4.0 9.0 0.00 0.00 0.00 56 1011.1
20260502182523 61 272 5.0 5.0 0.00 0.00 0.00 55 1011.1
20260502181516 62 284 4.0 6.0 0.00 0.00 0.00 54 1011.1
20260502180523 62 293 6.0 6.0 0.00 0.00 0.00 55 1011.1
20260502163526 71 264 7.0 11.0 0.00 0.00 0.00 38 1011.1
20260502162523 71 247 5.0 9.0 0.00 0.00 0.00 36 1011.1
20260502161518 73 246 9.0 11.0 0.00 0.00 0.00 35 1011.1
20260502160523 75 270 11.0 16.0 0.00 0.00 0.00 34 1011.1
20260502151515 77 251 10.0 11.0 0.00 0.00 0.00 32 1012.1
20260502150526 78 256 10.0 13.0 0.00 0.00 0.00 32 1012.1
20260502130523 80 225 8.0 13.0 0.00 0.00 0.00 35 1013.1
20260502123543 78 234 9.0 17.0 0.00 0.00 0.00 36 1014.1
20260502122516 77 253 14.0 18.0 0.00 0.00 0.00 37 1014.1
20260502121523 77 265 14.0 16.0 0.00 0.00 0.00 38 1014.1
20260502120519 78 248 12.0 15.0 0.00 0.00 0.00 38 1014.1
20260502115544 78 217 13.0 15.0 0.00 0.00 0.00 38 1014.1
20260502114523 77 260 13.0 13.0 0.00 0.00 0.00 39 1014.1
20260502113517 78 252 14.0 17.0 0.00 0.00 0.00 39 1015.1
20260502112524 77 258 6.0 8.0 0.00 0.00 0.00 39 1014.3
20260502111523 77 232 8.0 13.0 0.00 0.00 0.00 40 1014.1
20260502110515 75 260 10.0 11.0 0.00 0.00 0.00 41 1015.1
20260502105523 77 240 7.0 10.0 0.00 0.00 0.00 43 1015.1
20260502104543 75 234 4.0 6.0 0.00 0.00 0.00 44 1015.1
20260502103523 74 267 4.0 5.0 0.00 0.00 0.00 45 1015.1
20260502102523 72 248 8.0 11.0 0.00 0.00 0.00 46 1015.1
20260502101523 72 248 6.0 9.0 0.00 0.00 0.00 47 1015.1
20260502100523 71 238 7.0 16.0 0.00 0.00 0.00 48 1015.1
20260502091524 67 275 7.0 13.0 0.00 0.00 0.00 51 1015.1
20260502090518 66 187 11.0 16.0 0.00 0.00 0.00 52 1016.1
20260502071523 59 245 7.0 9.0 0.00 0.00 0.00 65 1016.1
20260502070523 58 274 3.0 10.0 0.00 0.00 0.00 68 1017.1
20260502065516 56 248 5.0 9.0 0.00 0.00 0.00 70 1017.1
20260502064523 55 233 3.0 5.0 0.00 0.00 0.00 73 1017.1
20260502063516 54 195 2.0 6.0 0.00 0.00 0.00 76 1017.1
20260502062515 52 256 1.0 3.0 0.00 0.00 0.00 78 1017.1
20260502061523 50 235 1.0 4.0 0.00 0.00 0.00 80 1017.1
20260502060544 49 0.0 0.0 0.00 0.00 0.00 81 1017.1
20260502055543 47 0.0 0.0 0.00 0.00 0.00 81 1017.1
20260502054523 46 0.0 0.0 0.00 0.00 0.00 81 1017.1
20260502053523 45 0.0 0.0 0.00 0.00 0.00 80 1017.1
20260502052603 44 0.0 0.0 0.00 0.00 0.00 80 1017.1
20260502051526 43 0.0 0.0 0.00 0.00 0.00 80 1017.1
20260502050523 43 0.0 0.0 0.00 0.00 0.00 79 1018.1
20260502045604 42 0.0 0.0 0.00 0.00 0.00 79 1018.1
20260502044523 41 0.0 0.0 0.00 0.00 0.00 79 1018.1
20260502043523 41 0.0 0.0 0.00 0.00 0.00 78 1018.1
20260502042527 41 0.0 0.0 0.00 0.00 0.00 78 1018.1
20260502041523 41 0.0 0.0 0.00 0.00 0.00 78 1018.1
20260502040544 41 0.0 0.0 0.00 0.00 0.00 78 1018.1
20260502035523 41 0.0 0.0 0.00 0.00 0.00 78 1019.1
20260502034521 41 0.0 0.0 0.00 0.00 0.00 77 1019.1
20260502033543 41 0.0 0.0 0.00 0.00 0.00 77 1019.1
20260502032526 41 0.0 0.0 0.00 0.00 0.00 76 1019.1
20260502031519 41 0.0 0.0 0.00 0.00 0.00 75 1019.1
20260502030524 41 0.0 0.0 0.00 0.00 0.00 75 1019.1
20260502025543 41 0.0 0.0 0.00 0.00 0.00 75 1019.1
20260502024559 42 0.0 0.0 0.00 0.00 0.00 74 1019.1
20260502023523 42 0.0 0.0 0.00 0.00 0.00 73 1019.1
20260502022523 42 0.0 0.0 0.00 0.00 0.00 72 1019.9
20260502021516 42 0.0 0.0 0.00 0.00 0.00 72 1020.1
20260502020523 42 68 0.0 1.0 0.00 0.00 0.00 71 1020.1
20260502015524 42 0.0 0.0 0.00 0.00 0.00 70 1020.1
20260502014523 42 0.0 0.0 0.00 0.00 0.00 69 1020.1
20260502013523 42 0.0 0.0 0.00 0.00 0.00 69 1020.1
20260502012523 41 0.0 0.0 0.00 0.00 0.00 69 1020.1
20260502011522 41 0.0 0.0 0.00 0.00 0.00 69 1020.1
20260502010520 41 0.0 0.0 0.00 0.00 0.00 68 1021.1
20260502005518 41 0.0 0.0 0.00 0.00 0.00 67 1021.1